weather.gov     
National Weather Service

Regional Weather Roundup
NWS Homepage
This page is being discontinued on March 12, 2014.
The same data is available at this site. Please update your bookmarks.
Thank you, and we apologize for the inconvenience.
Please send an email to SR-SRH.Webmaster@noaa.gov with any concerns.


Current Version
Previous Version:    01  02  03  04  05  06  07  08  09  10  11  12  13  14  15  16  17  18  19  20  21  22  23  24  25  26  
[Printable]
171
ASUS41 KOKX 011605
RWROKX

REGIONAL WEATHER ROUNDUP
NATIONAL WEATHER SERVICE NEW YORK NY
1100 AM EST SUN FEB 01 2015

NOTE: "FAIR" INDICATES FEW OR NO CLOUDS BELOW 12,000 FEET WITH NO
SIGNIFICANT WEATHER AND/OR OBSTRUCTIONS TO VISIBILITY.

NYZ071-072-176-178-NJZ106-104-011700-
NEW YORK CITY METRO AREA


CITY           SKY/WX    TMP DP  RH WIND       PRES   REMARKS
CENTRAL PARK   MOSUNNY   34  17  50 W5        30.22F WCI  30
LAGUARDIA APRT PTSUNNY   33  19  56 NW12      30.21F WCI  24
KENNEDY INTL   PTSUNNY   32  18  56 W12       30.23S WCI  23
NEWARK/LIBERTY CLOUDY    31  18  58 W14       30.22F WCI  21
BRNX BOT. GARD   N/A    N/A N/A N/A W6        30.21F
TETERBORO      MOSUNNY   34  18  52 VRB6      30.20F WCI  29
$$

NYZ177-179-078>081-011700-
LONG ISLAND NEW YORK

CITY           SKY/WX    TMP DP  RH WIND       PRES   REMARKS
FARMINGDALE    MOSUNNY   34  20  56 NW8       30.20F WCI  27
ISLIP          PTSUNNY   33  19  56 NW12      30.18F WCI  24
SHIRLEY        SUNNY     32  19  58 NW13      30.20F WCI  22
WESTHAMPTON    SUNNY     32  18  56 W13       30.20F WCI  22
MONTAUK POINT    N/A     31  20  63 W9        30.19F WCI  23
$$

NYZ052-065-067-011700-
HUDSON VALLEY

CITY           SKY/WX    TMP DP  RH WIND       PRES   REMARKS
WHITE PLAINS   MOSUNNY   29  17  61 NW9       30.16F WCI  20
NEWBURGH       MOSUNNY   28  21  74 W14       30.17F WCI  17
MONTGOMERY     SUNNY     30  19  63 VRB7      30.16F WCI  23
POUGHKEEPSIE   SUNNY     31  17  56 S5        30.17F WCI  26
ALBANY         MOSUNNY   23  12  62 NE7       30.19F WCI  15
$$

NJZ001-105-106-008-010-013-015-019>022-104-011700-
NEW JERSEY

CITY           SKY/WX    TMP DP  RH WIND       PRES   REMARKS
NEWARK/LIBERTY CLOUDY    31  18  58 W14       30.22F WCI  21
TETERBORO      MOSUNNY   34  18  52 VRB6      30.20F WCI  29
CALDWELL       MOSUNNY   31  16  54 W7        30.21S WCI  24
MORRISTOWN     CLOUDY    30  18  59 W7        30.22S WCI  23
SOMERVILLE     CLOUDY    32  17  54 SW3       30.21F
SUSSEX         SUNNY     29  16  58 S6        30.17F WCI  23
ANDOVER          N/A     29  17  61 SW7       30.18S WCI  22
TRENTON        CLOUDY    33  17  51 W7        30.23F WCI  27
MILLVILLE      CLOUDY    35  16  45 W8        30.26F WCI  29
ATLANTIC CITY  MOSUNNY   36  15  42 W7        30.26F WCI  30
WRIGHTSTOWN    CLOUDY    34  17  48 VRB6      30.22F WCI  29
TOMS RIVER     CLOUDY    34  18  51 NW12      30.25S WCI  25
BELMAR         CLOUDY    32  16  51 W9        30.23S WCI  24
$$

PAZ047>061-062-071-011700-
EASTERN PENNSYLVANIA

CITY           SKY/WX    TMP DP  RH WIND       PRES   REMARKS
PHILADELPHIA   CLOUDY    35  19  52 W12       30.26F WCI  27
ALLENTOWN      CLOUDY    31  18  58 SW5       30.21F WCI  26
SCRANTON       CLOUDY    27  15  61 SW9       30.16S WCI  18
$$

CTZ002-004>006-009-010-012-RIZ004-006-007-MAZ004-011-015-011700-
SOUTHERN NEW ENGLAND
 IN CT

CITY           SKY/WX    TMP DP  RH WIND       PRES   REMARKS
BRADLEY INTL   MOSUNNY   27  14  58 W10       30.16F WCI  17
HARTFORD       MOSUNNY   28  15  58 SW8G16    30.19F WCI  20
DANBURY        SUNNY     29  15  56 VRB3      30.17F
WTRBRY/OXFORD  MOSUNNY   25  10  54 N7        30.16S WCI  17
BRIDGEPORT     SUNNY     31  18  58 SW6       30.19F WCI  25
MERIDEN        SUNNY     27  14  58 CALM      30.19F
NEW HAVEN      MOSUNNY   26  15  63 W3        30.19F
CHESTER        FAIR      30  19  64 NW10G17   30.16F WCI  21
GROTON         SUNNY     27  16  63 NW8       30.18F WCI  19
WILLIMANTIC    SUNNY     27  14  58 W10       30.16F WCI  17

 IN RI

CITY           SKY/WX    TMP DP  RH WIND       PRES   REMARKS
PROVIDENCE     MOSUNNY   28  15  58 W10       30.15F WCI  19
BLOCK ISLAND   MOSUNNY   32  19  59 W16G22    30.16F WCI  21
WESTERLY       SUNNY     28  15  58 W6        30.18F WCI  22

 IN MA

CITY           SKY/WX    TMP DP  RH WIND       PRES   REMARKS
BOSTON         MOSUNNY   24  11  57 W15G22    30.14F WCI  11
WORCESTER      SUNNY     18   0  45 W12       30.08S WCI   5
WESTFIELD      MOSUNNY   28  14  55 NW8       30.14F WCI  20
PROVINCETOWN   MOSUNNY   27  14  59 W16       30.13F WCI  14
NANTUCKET      MOSUNNY   30  17  58 W20       30.14F WCI  17
$$

ANZ330-335-338-340-345-350-353-355-011700-
COASTAL MARINE OBSERVATIONS


STATION/POSITION TIME  SKY/WX   TEMP    WIND        PRES    VSBY  WAVE
                                AIR SEA DIR/SP/G                  HT/PER
                 (UTC)          (F)     (DEG/KT/KT) (MB)    (MI)  (FT/S)
NY HARB ENTRANCE 1600            32 40  260/ 14/ 16 1023.2          2/11
4S FIRE IS       NOT AVBL
20S FIRE ISLAND  1500               40              1023.9          3/ 5
23SW MTP         1600                                 N/A           4/ 6
HUDSON CANYON    NOT AVBL
EXECUTION ROCKS  1600            34 33  290/  8/ 12   N/A
WESTERN LI SOUND 1600            31     290/ 10/ 12   N/A           1/ 3
CENTRAL LI SOUND 1500            26 34  280/ 12/ 16   N/A           2/ 5
EASTERN LI SOUND NOT AVBL
ROBBINS REEF     1600            30     270/ 12/ 15 1021.9
$$


>>>>>>>>>>>>>>>>>>>>>>>>>>>> KEY <<<<<<<<<<<<<<<<<<<<<<<<<<<
>                                                          <
>     SKY/WX - SKY CONDITION/PRESENT WEATHER               <
>     TMP    - TEMPERATURE IN FAHRENHEIT                   <
>     DP     - DEWPOINT IN FAHRENHEIT                      <
>     RH     - RELATIVE HUMIDITY IN PERCENT                <
>     WIND   - DIRECTION AND SPEED IN MPH                  <
>     PRES   - MEAN SEA LEVEL PRESSURE IN INCHES OF HG     <
>     WCI    - WIND CHILL INDEX                            <
>     VSB    - VISIBILITY IN MILES                         <
>     HX     - HEAT INDEX                                  <
>     TC     - TEMPERATURE IN CELSIUS                      <
>     VRB    - VARIABLE WIND DIRECTION                     <
>                                                          <
>>>>>>>>>>>>>>>>>>>>>>>>>>>> KEY <<<<<<<<<<<<<<<<<<<<<<<<<<<






U.S. Dept. of Commerce
NOAA National Weather Service
1325 East West Highway
Silver Spring, MD 20910
E-mail: w-nws.webmaster@noaa.gov
Page last modified: May 16, 2007
NATIONAL WEATHER SERVICE: for Safety, for Work, for Fun - FOR LIFE